Flag for Turkey Weather past 2 weeks in Gaziantep, Turkey

Now
79 °F

Scattered clouds.


Feels Like: 79 °F
Forecast: 56 / 79 °F
Wind: 8 mph from Southwest

Location: Gaziantep Airport

Current Time: Sep 18, 2014 at 1:44:41 PM

Latest Report: Sep 18, 2014 at 12:50 PM


Visibility: N/A

Pressure: 29.92 "Hg

Humidity: 42%

Dew point: 54 °F

Location of GaziantepLocation

Historic Weather in Gaziantep — Graph

°F

Gaziantep temperature yesterday

Maximum temperature yesterday: 84 °F (at 2:50 PM)
Minimum temperature yesterday: 59 °F (at 4:50 AM)
Average temperature yesterday: 72 °F

Past Weeks' High & Low Weather Summary

 TemperatureHumidityPressure
High93 °F (Sep 4, 1:50 PM)88% (Sep 17, 4:50 AM)29.95 "Hg (Sep 17, 4:50 AM)
Low57 °F (Sep 18, 3:20 AM)16% (Sep 13, 3:50 PM)29.68 "Hg (Sep 5, 3:20 PM)
Average77 °F49%29.84 "Hg
* Reported Sep 3 12:20 PM — Sep 18 12:20 PM, Gaziantep, Weather by CustomWeather, © 2014

Note: Actual official high and low records may vary slightly from our data, if they occured in-between our weather recording intervals... More about our weather records

Advertising

Gaziantep weather history for previous 24 hours

 ConditionsComfort  
Time TempWeatherWind HumidityBarometerVisibility
12:20 PM
Sep 18
79 °FScattered clouds.8 mph39%29.92 "HgN/A
11:50 AM79 °FScattered clouds.10 mph39%29.92 "HgN/A
11:20 AM79 °FScattered clouds.3 mph39%29.92 "HgN/A
10:50 AM77 °FScattered clouds.6 mph39%29.95 "HgN/A
10:20 AM77 °FScattered clouds.6 mph39%29.95 "HgN/A
9:50 AM75 °FScattered clouds.2 mph41%29.95 "HgN/A
9:20 AM75 °FPassing clouds.3 mph39%29.92 "HgN/A
8:50 AM73 °FSunny.3 mph44%29.92 "Hg10 mi
8:20 AM66 °FSunny.No wind60%29.92 "Hg10 mi
7:50 AM63 °FSunny.No wind68%29.92 "Hg10 mi
7:20 AM59 °FSunny.No wind77%29.92 "Hg10 mi
6:50 AM59 °FClear.1 mph72%29.89 "Hg10 mi
6:20 AM59 °FClear.2 mph72%29.89 "Hg10 mi
5:50 AM57 °FClear.No wind77%29.89 "Hg10 mi
5:20 AM57 °FClear.No wind77%29.86 "Hg10 mi
4:50 AM59 °FClear.2 mph68%29.86 "Hg10 mi
4:20 AM59 °FClear.No wind72%29.86 "Hg10 mi
3:50 AM57 °FClear.1 mph72%29.86 "Hg10 mi
3:20 AM57 °FClear.1 mph77%29.86 "Hg10 mi
2:50 AM61 °FClear.No wind72%29.83 "Hg10 mi
2:20 AM59 °FClear.No wind72%29.83 "Hg10 mi
1:50 AM63 °FClear.No wind68%29.83 "Hg10 mi
1:20 AM63 °FClear.No wind68%29.86 "Hg10 mi
12:50 AM61 °FClear.5 mph68%29.86 "Hg10 mi
12:20 AM63 °FClear.8 mph64%29.83 "Hg10 mi
11:50 PM
Sep 17
64 °FPassing clouds.8 mph64%29.86 "HgN/A
11:20 PM64 °FClear.7 mph64%29.86 "Hg10 mi
10:50 PM66 °FPassing clouds.7 mph64%29.86 "HgN/A
10:20 PM68 °FClear.7 mph60%29.86 "Hg10 mi
9:50 PM68 °FClear.8 mph60%29.86 "Hg10 mi
9:20 PM68 °FClear.5 mph60%29.86 "Hg10 mi
8:50 PM70 °FClear.6 mph53%29.83 "Hg10 mi
8:20 PM72 °FClear.7 mph47%29.83 "Hg10 mi
7:50 PM73 °FClear.8 mph44%29.83 "Hg10 mi
7:20 PM75 °FSunny.10 mph39%29.80 "Hg10 mi
6:50 PM79 °FSunny.12 mph32%29.80 "Hg10 mi
6:20 PM81 °FPassing clouds.9 mph34%29.80 "HgN/A
5:50 PM81 °FPassing clouds.12 mph34%29.80 "HgN/A
5:20 PM82 °FScattered clouds.13 mph32%29.80 "HgN/A
4:50 PM82 °FScattered clouds.15 mph32%29.80 "HgN/A
4:20 PM82 °FScattered clouds.14 mph32%29.80 "HgN/A
3:50 PM84 °FScattered clouds.12 mph29%29.80 "HgN/A
3:20 PM84 °FScattered clouds.9 mph31%29.80 "HgN/A
2:50 PM84 °FScattered clouds.9 mph29%29.80 "HgN/A
2:20 PM82 °FPassing clouds.12 mph28%29.80 "HgN/A
1:50 PM82 °FScattered clouds.8 mph30%29.83 "HgN/A
1:20 PM82 °FScattered clouds.12 mph30%29.83 "HgN/A
Weather by CustomWeather, © 2014

See weather overviewHow to use our weather pages